• In Latvia
  • List of Countries
  • For 7 days
  • Water Temperature
  • Satellite Maps
  • Weather Map
  • Weather Widgets
  • user-avatar
    Login

    Hourly Weather Gjirokaster

    Today, 24 October, Wednesday

    Time Temperature Precipitation Wind Pressure Humidity
    00:00 +7°C° 0 mm 2 mps 650 mmHg 72%
    01:00 +6°C° 0 mm 2 mps 649 mmHg 73%
    02:00 +6°C° 0 mm 2 mps 649 mmHg 74%
    03:00 +6°C° 0 mm 2 mps 649 mmHg 74%
    04:00 +6°C° 0 mm 2 mps 648 mmHg 74%
    05:00 +6°C° 0 mm 2 mps 648 mmHg 73%
    06:00 +6°C° 0 mm 2 mps 648 mmHg 72%
    07:00 +7°C° 0 mm 2 mps 648 mmHg 71%
    08:00 +9°C° 0 mm 3 mps 649 mmHg 63%
    09:00 +10°C° 0 mm 3 mps 649 mmHg 55%
    10:00 +12°C° 0 mm 4 mps 649 mmHg 47%
    11:00 +13°C° 0 mm 4 mps 649 mmHg 44%
    12:00 +14°C° 0 mm 5 mps 649 mmHg 42%
    13:00 +14°C° 0 mm 5 mps 649 mmHg 39%
    14:00 +14°C° 0 mm 5 mps 648 mmHg 43%
    15:00 +13°C° 0 mm 5 mps 648 mmHg 46%
    16:00 +12°C° 0 mm 5 mps 648 mmHg 50%
    17:00 +10°C° 0 mm 5 mps 648 mmHg 54%
    18:00 +8°C° 0 mm 4 mps 647 mmHg 59%
    19:00 +7°C° 0 mm 4 mps 647 mmHg 63%
    20:00 +6°C° 0 mm 4 mps 647 mmHg 65%
    21:00 +6°C° 0 mm 4 mps 648 mmHg 66%
    22:00 +7°C° 0 mm 3 mps 648 mmHg 68%
    23:00 +5°C° 0 mm 3 mps 648 mmHg 71%

    Tomorrow, 25 October, Thursday

    Time Temperature Precipitation Wind Pressure Humidity
    00:00 +5°C° 0 mm 3 mps 648 mmHg 75%
    01:00 +5°C° 0 mm 4 mps 649 mmHg 79%
    02:00 +5°C° 0 mm 4 mps 649 mmHg 82%
    03:00 +5°C° 0 mm 4 mps 649 mmHg 85%
    04:00 +5°C° 0 mm 5 mps 649 mmHg 88%
    05:00 +5°C° 0 mm 5 mps 650 mmHg 86%
    06:00 +5°C° 0 mm 4 mps 650 mmHg 84%
    07:00 +5°C° 0 mm 4 mps 651 mmHg 82%
    08:00 +6°C° 0 mm 4 mps 652 mmHg 70%
    09:00 +8°C° 0 mm 4 mps 652 mmHg 58%
    10:00 +11°C° 0 mm 3 mps 653 mmHg 45%
    11:00 +12°C° 0 mm 3 mps 653 mmHg 40%
    12:00 +12°C° 0 mm 4 mps 653 mmHg 35%
    13:00 +13°C° 0 mm 4 mps 653 mmHg 30%
    14:00 +13°C° 0 mm 4 mps 653 mmHg 33%
    15:00 +12°C° 0 mm 4 mps 653 mmHg 36%
    16:00 +11°C° 0 mm 4 mps 653 mmHg 39%
    17:00 +10°C° 0 mm 4 mps 653 mmHg 40%
    18:00 +8°C° 0 mm 3 mps 653 mmHg 42%
    19:00 +7°C° 0 mm 3 mps 653 mmHg 43%
    20:00 +7°C° 0 mm 2 mps 653 mmHg 43%
    21:00 +7°C° 0 mm 2 mps 653 mmHg 43%
    22:00 +6°C° 0 mm 2 mps 653 mmHg 42%
    23:00 +6°C° 0 mm 2 mps 653 mmHg 42%

    Day after tomorrow, 26 October, Friday

    Time Temperature Precipitation Wind Pressure Humidity
    00:00 +6°C° 0 mm 2 mps 653 mmHg 42%
    01:00 +7°C° 0 mm 1 mps 653 mmHg 41%
    02:00 +7°C° 0 mm 1 mps 653 mmHg 42%
    03:00 +7°C° 0 mm 1 mps 653 mmHg 43%
    04:00 +7°C° 0 mm 1 mps 652 mmHg 43%
    05:00 +7°C° 0 mm 2 mps 653 mmHg 45%
    06:00 +7°C° 0 mm 2 mps 653 mmHg 47%
    07:00 +7°C° 0 mm 2 mps 653 mmHg 49%
    08:00 +9°C° 0 mm 2 mps 654 mmHg 46%
    09:00 +11°C° 0 mm 3 mps 654 mmHg 43%
    10:00 +13°C° 0 mm 3 mps 655 mmHg 40%
    11:00 +14°C° 0 mm 3 mps 655 mmHg 41%
    12:00 +14°C° 0 mm 4 mps 654 mmHg 41%
    13:00 +15°C° 0 mm 4 mps 654 mmHg 41%
    14:00 +14°C° 0 mm 4 mps 654 mmHg 47%
    15:00 +13°C° 0 mm 4 mps 654 mmHg 52%
    16:00 +13°C° 0 mm 3 mps 654 mmHg 57%
    17:00 +11°C° 0 mm 4 mps 654 mmHg 64%
    18:00 +10°C° 0 mm 4 mps 654 mmHg 70%
    19:00 +8°C° 0 mm 4 mps 654 mmHg 77%
    20:00 +8°C° 0 mm 4 mps 654 mmHg 79%
    21:00 +7°C° 0 mm 4 mps 654 mmHg 82%
    22:00 +7°C° 0 mm 4 mps 654 mmHg 85%
    23:00 +7°C° 0 mm 4 mps 654 mmHg 86%

    27 October, Saturday

    Time Temperature Precipitation Wind Pressure Humidity
    00:00 +7°C° 0 mm 4 mps 653 mmHg 87%
    01:00 +7°C° 0 mm 4 mps 653 mmHg 89%
    02:00 +7°C° 0 mm 4 mps 653 mmHg 89%
    03:00 +7°C° 0 mm 4 mps 653 mmHg 89%
    04:00 +7°C° 0 mm 4 mps 653 mmHg 89%
    05:00 +7°C° 0 mm 4 mps 653 mmHg 89%
    06:00 +8°C° 0 mm 4 mps 653 mmHg 88%
    07:00 +8°C° 0 mm 4 mps 653 mmHg 87%
    08:00 +9°C° 0 mm 5 mps 654 mmHg 81%
    09:00 +12°C° 0 mm 5 mps 654 mmHg 74%
    10:00 +14°C° 0 mm 5 mps 655 mmHg 68%
    11:00 +14°C° 0.1 mm 5 mps 654 mmHg 68%
    12:00 +14°C° 0.1 mm 5 mps 654 mmHg 67%
    13:00 +14°C° 0.1 mm 5 mps 654 mmHg 67%
    14:00 +14°C° 0.1 mm 5 mps 654 mmHg 71%
    15:00 +13°C° 0.1 mm 5 mps 653 mmHg 75%
    16:00 +13°C° 0.1 mm 4 mps 653 mmHg 79%
    17:00 +12°C° 0.1 mm 4 mps 653 mmHg 84%
    18:00 +11°C° 0.1 mm 4 mps 653 mmHg 88%
    19:00 +10°C° 0.1 mm 4 mps 653 mmHg 93%
    20:00 +10°C° 0 mm 4 mps 653 mmHg 93%
    21:00 +10°C° 0 mm 4 mps 653 mmHg 93%
    22:00 +8°C° 0 mm 4 mps 653 mmHg 94%
    23:00 +8°C° 0 mm 4 mps 653 mmHg 94%

    28 October, Sunday

    Time Temperature Precipitation Wind Pressure Humidity
    00:00 +8°C° 0 mm 4 mps 653 mmHg 94%
    01:00 +8°C° 0 mm 4 mps 653 mmHg 94%
    02:00 +8°C° 0 mm 4 mps 653 mmHg 93%
    03:00 +7°C° 0 mm 4 mps 653 mmHg 93%
    04:00 +7°C° 0 mm 4 mps 652 mmHg 93%
    05:00 +7°C° 0 mm 4 mps 652 mmHg 91%
    06:00 +7°C° 0 mm 4 mps 652 mmHg 90%
    07:00 +7°C° 0 mm 4 mps 652 mmHg 88%
    08:00 +9°C° 0 mm 5 mps 653 mmHg 78%
    09:00 +12°C° 0 mm 5 mps 653 mmHg 68%
    10:00 +14°C° 0 mm 6 mps 654 mmHg 58%
    11:00 +15°C° 0 mm 6 mps 654 mmHg 56%
    12:00 +15°C° 0 mm 6 mps 653 mmHg 53%
    13:00 +15°C° 0 mm 6 mps 653 mmHg 51%
    14:00 +15°C° 0 mm 6 mps 653 mmHg 55%
    15:00 +14°C° 0 mm 6 mps 653 mmHg 58%
    16:00 +13°C° 0 mm 5 mps 652 mmHg 62%
    17:00 +12°C° 0 mm 5 mps 652 mmHg 67%
    18:00 +10°C° 0 mm 5 mps 652 mmHg 71%
    19:00 +8°C° 0 mm 5 mps 652 mmHg 76%
    20:00 +8°C° 0 mm 5 mps 652 mmHg 70%
    21:00 +8°C° 0 mm 5 mps 652 mmHg 64%
    22:00 +8°C° 0 mm 5 mps 652 mmHg 58%
    23:00 +8°C° 0 mm 5 mps 652 mmHg 54%

    29 October, Monday

    Time Temperature Precipitation Wind Pressure Humidity
    00:00 +8°C° 0 mm 5 mps 652 mmHg 50%
    01:00 +8°C° 0 mm 5 mps 652 mmHg 47%
    02:00 +8°C° 0 mm 5 mps 652 mmHg 46%
    03:00 +8°C° 0 mm 5 mps 652 mmHg 46%
    04:00 +8°C° 0 mm 5 mps 651 mmHg 46%
    05:00 +8°C° 0 mm 5 mps 652 mmHg 47%
    06:00 +8°C° 0 mm 5 mps 652 mmHg 48%
    07:00 +8°C° 0 mm 5 mps 652 mmHg 48%
    08:00 +10°C° 0 mm 5 mps 652 mmHg 48%
    09:00 +11°C° 0 mm 6 mps 653 mmHg 47%
    10:00 +14°C° 0 mm 6 mps 653 mmHg 46%
    11:00 +15°C° 0 mm 6 mps 653 mmHg 45%
    12:00 +16°C° 0 mm 6 mps 653 mmHg 45%
    13:00 +16°C° 0 mm 7 mps 653 mmHg 44%
    14:00 +15°C° 0 mm 6 mps 652 mmHg 48%
    15:00 +15°C° 0 mm 6 mps 652 mmHg 51%
    16:00 +14°C° 0 mm 6 mps 652 mmHg 55%
    17:00 +13°C° 0 mm 6 mps 652 mmHg 55%
    18:00 +11°C° 0 mm 6 mps 652 mmHg 56%
    19:00 +11°C° 0 mm 6 mps 652 mmHg 57%
    20:00 +11°C° 0.1 mm 6 mps 652 mmHg 59%
    21:00 +12°C° 0.1 mm 5 mps 652 mmHg 60%
    22:00 +10°C° 0.1 mm 5 mps 652 mmHg 61%
    23:00 +10°C° 0.1 mm 5 mps 652 mmHg 62%

    30 October, Tuesday

    Time Temperature Precipitation Wind Pressure Humidity
    00:00 +10°C° 0.1 mm 5 mps 652 mmHg 62%
    01:00 +10°C° 0.1 mm 6 mps 651 mmHg 63%
    02:00 +10°C° 0.1 mm 5 mps 651 mmHg 64%
    03:00 +9°C° 0.1 mm 5 mps 651 mmHg 65%
    04:00 +10°C° 0.1 mm 4 mps 650 mmHg 66%
    05:00 +9°C° 0.1 mm 5 mps 650 mmHg 65%
    06:00 +10°C° 0.1 mm 5 mps 650 mmHg 64%
    07:00 +10°C° 0.1 mm 6 mps 650 mmHg 62%
    08:00 +10°C° 0.1 mm 5 mps 650 mmHg 59%
    09:00 +12°C° 0.1 mm 5 mps 650 mmHg 56%
    10:00 +13°C° 0.1 mm 5 mps 650 mmHg 53%
    11:00 +13°C° 0.2 mm 6 mps 650 mmHg 57%
    12:00 +12°C° 0.2 mm 7 mps 650 mmHg 60%
    13:00 +12°C° 0.2 mm 8 mps 650 mmHg 63%
    14:00 +12°C° 1.2 mm 8 mps 650 mmHg 69%
    15:00 +11°C° 1.2 mm 8 mps 650 mmHg 75%
    16:00 +11°C° 1.2 mm 8 mps 650 mmHg 81%
    17:00 +10°C° 4 mm 7 mps 650 mmHg 84%
    18:00 +10°C° 4 mm 6 mps 650 mmHg 88%
    19:00 +10°C° 4 mm 5 mps 650 mmHg 92%
    20:00 +10°C° 2.4 mm 4 mps 651 mmHg 93%
    21:00 +10°C° 2.4 mm 3 mps 651 mmHg 93%
    22:00 +10°C° 2.4 mm 3 mps 651 mmHg 93%
    23:00 +10°C° 0.3 mm 2 mps 651 mmHg 93%
    Show more